Total_Precipitation_Accumulation
0.06 0.09 0.11 0.13 0.12 0.07 0.03 0.02 0.02 0.04 0.10 0.14 0.20 0.38 0.59 0.55 0.58 0.52 0.34 0.37 0.53 0.70 0.79 0.75 0.67 0.56 0.48 0.39 0.35 0.42 0.41 0.25 0.07 0.05 0.04 0.01 0.00 0.00 0.00 0.00 0.00 0.00 0.00
0.03 0.04 0.06 0.09 0.09 0.08 0.04 0.04 0.05 0.08 0.12 0.18 0.27 0.37 0.44 0.33 0.39 0.45 0.45 0.41 0.45 0.62 0.74 0.87 0.82 0.69 0.66 0.71 0.74 0.88 0.91 0.60 0.26 0.19 0.20 0.12 0.07 0.01 0.00 0.00 0.00 0.00 0.00
0.02 0.03 0.04 0.05 0.06 0.06 0.06 0.06 0.08 0.14 0.22 0.32 0.46 0.54 0.57 0.56 0.60 0.57 0.61 0.58 0.52 0.52 0.56 0.73 0.76 0.67 0.66 0.77 0.88 1.10 1.31 1.04 0.66 0.41 0.40 0.37 0.36 0.18 0.03 0.00 0.00 0.00 0.00
0.02 0.02 0.02 0.04 0.05 0.05 0.05 0.08 0.14 0.27 0.43 0.58 0.74 0.88 0.93 0.85 0.70 0.65 0.60 0.46 0.43 0.44 0.44 0.50 0.57 0.62 0.61 0.75 0.82 0.89 1.21 1.31 1.03 0.77 0.51 0.35 0.30 0.26 0.18 0.05 0.01 0.01 0.00
0.03 0.05 0.06 0.08 0.09 0.10 0.12 0.19 0.38 0.61 0.83 0.99 1.15 1.32 1.21 1.00 0.78 0.61 0.51 0.47 0.41 0.36 0.36 0.43 0.40 0.41 0.48 0.61 0.80 0.94 1.15 1.27 1.14 0.97 0.82 0.67 0.50 0.28 0.27 0.26 0.09 0.01 0.01
0.10 0.16 0.23 0.30 0.35 0.39 0.51 0.72 0.95 1.11 1.18 1.27 1.33 1.37 1.27 1.12 0.93 0.68 0.52 0.46 0.43 0.42 0.46 0.47 0.37 0.31 0.36 0.45 0.61 0.78 0.98 1.19 1.21 1.00 0.82 0.78 0.69 0.61 0.49 0.35 0.25 0.12 0.02
0.23 0.35 0.52 0.66 0.77 0.88 0.98 1.12 1.28 1.39 1.32 1.27 1.26 1.25 1.17 1.06 0.91 0.73 0.56 0.43 0.37 0.35 0.39 0.45 0.50 0.44 0.39 0.42 0.46 0.55 0.63 0.84 1.09 1.00 0.86 0.78 0.67 0.65 0.66 0.55 0.39 0.30 0.11
0.39 0.49 0.59 0.73 0.88 0.98 1.01 1.02 1.11 1.18 1.16 1.12 1.07 1.02 0.98 0.89 0.76 0.59 0.49 0.42 0.36 0.31 0.24 0.24 0.31 0.40 0.45 0.40 0.37 0.32 0.37 0.53 0.73 0.82 0.93 0.97 0.82 0.67 0.60 0.57 0.53 0.42 0.34
0.59 0.71 0.83 0.97 1.00 1.01 1.01 0.93 0.92 0.95 0.96 0.90 0.84 0.80 0.75 0.69 0.60 0.52 0.48 0.41 0.34 0.26 0.21 0.21 0.19 0.19 0.19 0.18 0.19 0.21 0.26 0.30 0.48 0.65 0.77 0.91 0.98 0.89 0.69 0.62 0.59 0.54 0.49
0.77 1.00 1.24 1.34 1.18 0.94 0.82 0.79 0.74 0.74 0.78 0.80 0.77 0.72 0.66 0.59 0.52 0.46 0.44 0.36 0.28 0.21 0.18 0.15 0.11 0.08 0.06 0.07 0.10 0.16 0.24 0.27 0.34 0.49 0.60 0.68 0.76 0.92 0.88 0.74 0.70 0.63 0.53
0.89 1.00 1.17 1.27 1.09 0.81 0.62 0.61 0.66 0.67 0.67 0.69 0.68 0.65 0.58 0.50 0.44 0.40 0.37 0.32 0.24 0.19 0.13 0.09 0.07 0.07 0.05 0.05 0.08 0.09 0.11 0.14 0.19 0.26 0.35 0.49 0.71 0.95 0.97 0.92 0.82 0.73 0.64
0.82 0.82 0.85 0.88 0.84 0.68 0.56 0.53 0.59 0.62 0.63 0.68 0.68 0.64 0.54 0.46 0.43 0.38 0.33 0.27 0.20 0.14 0.10 0.10 0.07 0.05 0.05 0.05 0.08 0.09 0.10 0.12 0.15 0.16 0.20 0.32 0.59 0.87 1.03 1.11 1.05 0.91 0.81
0.84 0.82 0.75 0.67 0.61 0.57 0.55 0.55 0.66 0.74 0.79 0.79 0.67 0.55 0.49 0.45 0.42 0.33 0.28 0.24 0.17 0.11 0.08 0.11 0.09 0.06 0.04 0.04 0.05 0.09 0.11 0.12 0.17 0.21 0.22 0.23 0.37 0.61 0.84 0.98 1.04 1.00 0.96
0.61 0.59 0.55 0.51 0.48 0.48 0.51 0.55 0.67 0.76 0.86 0.94 0.83 0.67 0.55 0.47 0.40 0.32 0.30 0.26 0.19 0.16 0.13 0.14 0.15 0.11 0.07 0.07 0.07 0.05 0.05 0.05 0.09 0.15 0.19 0.22 0.25 0.36 0.51 0.68 0.82 0.97 1.08
0.31 0.32 0.32 0.31 0.30 0.28 0.29 0.36 0.47 0.64 0.82 0.98 0.95 0.77 0.63 0.56 0.48 0.42 0.40 0.35 0.30 0.22 0.19 0.17 0.19 0.24 0.24 0.24 0.26 0.14 0.06 0.05 0.05 0.06 0.07 0.11 0.15 0.21 0.30 0.39 0.58 0.87 1.07
0.21 0.22 0.21 0.19 0.15 0.13 0.15 0.16 0.24 0.40 0.56 0.71 0.76 0.70 0.60 0.49 0.42 0.42 0.42 0.39 0.35 0.30 0.28 0.26 0.27 0.31 0.32 0.47 0.41 0.21 0.08 0.05 0.05 0.07 0.05 0.06 0.07 0.11 0.17 0.21 0.29 0.48 0.67
0.18 0.17 0.18 0.18 0.17 0.15 0.14 0.13 0.17 0.24 0.34 0.46 0.55 0.53 0.46 0.38 0.32 0.34 0.36 0.34 0.31 0.31 0.29 0.29 0.27 0.29 0.37 0.38 0.22 0.16 0.12 0.12 0.10 0.09 0.07 0.05 0.04 0.04 0.07 0.13 0.19 0.23 0.29
0.17 0.16 0.16 0.15 0.13 0.12 0.11 0.11 0.14 0.16 0.18 0.22 0.26 0.27 0.27 0.26 0.28 0.29 0.29 0.28 0.26 0.25 0.25 0.32 0.37 0.37 0.32 0.29 0.19 0.15 0.15 0.21 0.18 0.11 0.07 0.08 0.07 0.09 0.10 0.09 0.12 0.17 0.23
0.09 0.08 0.07 0.06 0.05 0.04 0.04 0.04 0.05 0.05 0.05 0.06 0.08 0.10 0.12 0.13 0.17 0.17 0.20 0.29 0.31 0.31 0.35 0.45 0.51 0.43 0.31 0.28 0.25 0.22 0.22 0.27 0.28 0.20 0.15 0.12 0.14 0.25 0.18 0.10 0.13 0.19 0.27
0.02 0.02 0.01 0.01 0.01 0.00 0.00 0.00 0.00 0.00 0.00 0.00 0.00 0.01 0.01 0.02 0.05 0.08 0.10 0.16 0.22 0.28 0.35 0.36 0.33 0.32 0.36 0.36 0.27 0.28 0.31 0.35 0.39 0.32 0.25 0.31 0.27 0.31 0.22 0.11 0.18 0.25 0.26
0.00 0.00 0.00 0.00 0.00 0.00 0.00 0.00 0.00 0.00 0.00 0.00 0.00 0.00 0.00 0.00 0.01 0.01 0.02 0.04 0.09 0.12 0.13 0.14 0.16 0.22 0.38 0.39 0.32 0.35 0.31 0.31 0.35 0.35 0.35 0.29 0.32 0.24 0.19 0.13 0.14 0.24 0.20
0.00 0.00 0.00 0.00 0.00 0.00 0.00 0.00 0.00 0.00 0.00 0.00 0.00 0.00 0.00 0.00 0.00 0.01 0.01 0.01 0.02 0.03 0.05 0.07 0.10 0.15 0.22 0.26 0.24 0.20 0.19 0.21 0.30 0.35 0.34 0.30 0.39 0.27 0.15 0.08 0.10 0.14 0.12
0.00 0.00 0.00 0.00 0.00 0.00 0.00 0.00 0.00 0.00 0.00 0.00 0.00 0.00 0.00 0.00 0.00 0.01 0.01 0.01 0.02 0.03 0.04 0.07 0.10 0.14 0.18 0.18 0.15 0.10 0.10 0.15 0.23 0.29 0.35 0.37 0.33 0.21 0.13 0.12 0.12 0.12 0.14
0.00 0.00 0.00 0.00 0.00 0.00 0.00 0.00 0.00 0.00 0.00 0.00 0.00 0.00 0.01 0.01 0.01 0.01 0.01 0.02 0.02 0.04 0.06 0.11 0.15 0.17 0.19 0.19 0.18 0.18 0.15 0.17 0.19 0.23 0.28 0.28 0.20 0.16 0.16 0.15 0.14 0.16 0.19
0.00 0.00 0.00 0.00 0.00 0.00 0.00 0.00 0.00 0.00 0.00 0.00 0.00 0.00 0.01 0.01 0.01 0.01 0.01 0.01 0.02 0.04 0.09 0.11 0.14 0.14 0.14 0.13 0.14 0.22 0.28 0.35 0.41 0.40 0.34 0.31 0.30 0.27 0.21 0.16 0.15 0.16 0.17
0.00 0.00 0.00 0.00 0.00 0.00 0.00 0.00 0.00 0.00 0.00 0.00 0.00 0.00 0.01 0.01 0.01 0.02 0.01 0.01 0.01 0.01 0.03 0.04 0.06 0.10 0.12 0.07 0.07 0.14 0.26 0.40 0.54 0.71 0.69 0.66 0.62 0.55 0.40 0.20 0.12 0.10 0.12